Regional Weather Roundup
Issued by NWS

Home | Current Version | Previous Version | Text Only | Print | Product List | Glossary On
Versions: 1 2 3 4 5 6 7 8 9 10 11 12 13 14 15 16 17 18 19 20 21 22 23 24 25 26 27 28 29 30 31 32 33 34 35 36 37 38 39 40 41 42 43 44 45 46 47 48 49 50
000
ASHW40 PHFO 222210
RWRHI

WEATHER ROUNDUP FOR HAWAII
NATIONAL WEATHER SERVICE HONOLULU HI
1200 PM HST WED OCT 22 2014

THIS IS AN AUTOMATED REPORT THAT HAS NOT BEEN QUALITY CONTROLLED.

NOTE..."FAIR" INDICATES FEW OR NO CLOUDS BELOW 12,000 FEET WITH NO
SIGNIFICANT WEATHER AND/OR OBSTRUCTIONS TO VISIBILITY.

* - THESE SITES REPORT LIMITED FIELDS

HIZ001>004-222300-
KAUAI-NIIHAU-

CITY           SKY/WX    TMP DP  RH WIND       PRES   REMARKS
LIHUE APT      PTSUNNY   84  75  74 E12       30.02F HX  92
PORT ALLEN*    NOT AVBL
POIPU*         NOT AVBL
PRINCEVILLE*     N/A     81 N/A N/A MISG        N/A
KOKOLE POINT*  NOT AVBL
MOLOAA DAIRY*  NOT AVBL
WAIMEA HTS*    NOT AVBL
PUU OPAE*      NOT AVBL
PUU LUA*       NOT AVBL
MAKAHA RIDGE*  NOT AVBL
$$

HIZ005>011-222300-
OAHU-

CITY           SKY/WX    TMP DP  RH WIND       PRES   REMARKS
HONOLULU       LGT RAIN  77  75  92 CALM      30.01F
KALAELOA       PTSUNNY   82  74  76 SE7       30.02
KANEOHE MCB    PTSUNNY   83  74  74 SE8       30.01F
WHEELER FIELD  PTSUNNY   79  72  77 SW2       30.03F
BELLOWS*       NOT AVBL
KAHUKU*        NOT AVBL
WHEELER*       NOT AVBL
WAIANAE HARBOR NOT AVBL
DILLINGHAM*      N/A    N/A N/A N/A S2G10       N/A
KAHUKU TRN*      N/A     81  73  78 E5G13       N/A
KAWAILOA*        N/A     75  72  88 NE2         N/A
KII*             N/A     81  73  78 NE8G17      N/A
MAKUA RANGE*     N/A     81  73  78 E3          N/A
OAHU FOREST NW NOT AVBL
SCHOFIELD BRK*   N/A     68  59  73 MISG        N/A
SCHOFIELD S*   NOT AVBL
WAIANAE VLY*   NOT AVBL
KUAOKALA*      NOT AVBL
HONOULIUULI*   NOT AVBL
MOKUOLOE IS*   NOT AVBL
PALEHUA*       NOT AVBL
WAIAWA PHB*    NOT AVBL
$$

HIZ012>013-222300-
MOLOKAI-

CITY           SKY/WX    TMP DP  RH WIND       PRES   REMARKS
MOLOKAI AIRPT  LGT RAIN  78  75  90 NE9       30.03F
KALAUPAPA      NOT AVBL
MAKAPULAPAI*   NOT AVBL
MOLOKAI 1*     NOT AVBL
PUU ALII*      NOT AVBL
$$

HIZ016-222300-
KAHOOLAWE-

CITY           SKY/WX    TMP DP  RH WIND       PRES   REMARKS
KAHOOLAWE*     NOT AVBL
HAKIOAWA*      NOT AVBL
HONOKANAIA*      N/A     84  72  67 NW3G9     30.03F HX  90
KANELOA*         N/A     79  70  73 E12G17    29.26F
KEALIALALO*    NOT AVBL
LUA MAKIKA*    NOT AVBL
$$

HIZ014>015-222300-
LANAI-

CITY           SKY/WX    TMP DP  RH WIND       PRES   REMARKS
LANAI CITY     CLOUDY    78  73  84 W9        30.08F
LANAI 1*       NOT AVBL
$$

HIZ017>028-222300-
MAUI-

CITY           SKY/WX    TMP DP  RH WIND       PRES   REMARKS
KAHULUI        PTSUNNY   84  73  69 NE16      30.01F HX  90
KAPALUA-W MAUI LGT RAIN  81  73  78 NE8       30.01F
HANA AIRPORT   CLOUDY    82  75  78 E12       30.04S
HANA*          NOT AVBL
HALEAKALA SUMM   N/A     55  48  76 NE14        N/A
MAALAEA BAY*   NOT AVBL
HALEAKALA*     NOT AVBL
KAUPO GAP*     NOT AVBL
KULA 1*          N/A     61  58  90 NW3G10      N/A
$$

HIZ023>026-222300-
BIG ISLAND OF HAWAII COAST AND LOWER SLOPES-

CITY           SKY/WX    TMP DP  RH WIND       PRES   REMARKS
KAILUA KONA    SUNNY     86  73  65 W12       29.99F HX  93
HILO           MOSUNNY   84  73  69 E13       30.01F HX  90
HONOKAA*       NOT AVBL
KAWAIHAE MWT*  NOT AVBL
KAWAIHAE*        N/A     82 N/A N/A W6          N/A
SOUTH POINT*   NOT AVBL
UPOLU AIRPORT* NOT AVBL
KAMUELA*       MOCLDY    82  66  57 W7        30.12S
HAKALAU*         N/A     69  56  64 S6G13       N/A
KALOKO-HONOKO* NOT AVBL
PALI 2*          N/A     75  -6   4 SE9G16      N/A
KEALAKOMO*       N/A     84  72  65 E9          N/A
KAUPULEHU*     NOT AVBL
KAPAPALA*        N/A     81  66  60 SE5G12      N/A
LOWER KAHUKU*  NOT AVBL
PUHE CS*       NOT AVBL
PUHO CS*       NOT AVBL
PTA KEAMUKU*     N/A     72  64  78 W8          N/A
WAIKOLOA*      NOT AVBL
$$

HIZ027>028-222300-
BIG ISLAND OF HAWAII INTERIOR AND SUMMMITS-

CITY           SKY/WX    TMP DP  RH WIND       PRES   REMARKS
BRADSHAW FIELD MOSUNNY   67  58  72 SW9G17    30.36F
MK VISITOR CEN NOT AVBL
MAUNA KEA*       N/A     45  30  57 E6          N/A
MAUNA LOA*       N/A     54  36  50 MISG        N/A
MAUNA LOA 1*   NOT AVBL
PTA KIPUKA*      N/A     72  59  64 NW7         N/A
PTA RANGE 17*    N/A     66  57  72 NW9G16      N/A
PTA WEST*        N/A     72  63  73 NW9G16      N/A
NENE CABIN*    NOT AVBL
AHUMOA*        NOT AVBL
PTA PORTABLE*  NOT AVBL
PUU MALI*      NOT AVBL
$$

HIC003-222300-
NORTHWEST ISLANDS-

CITY           SKY/WX    TMP DP  RH WIND       PRES   REMARKS
MIDWAY ISLAND  SUNNY     86  77  74 S8        29.97S HX  97
MIDWAY NOS*    NOT AVBL
FRENCH FRIGATE NOT AVBL
$$

PHZ110>124-180-222300-
BUOY REPORTS

STATION/POSITION TIME  TEMP    WIND        PRES    WAVE   SWELL
                       AIR SEA DIR/SP/G            HT/PER HT/DIR
                 (UTC) (F)     (DEG/KT/KT) (MB)    (FT/S) (FT/D)
BUOY 51001       NOT AVBL
BUOY 51101       NOT AVBL
BUOY 51100       2200   79 80   90/ 12/ 14 1017.4F
BUOY 51003       2100   81 82  130/ 10/ 14 1016.4F   6/ 8   5
BUOY 51004       2058   80 81   70/ 14/ 16 1014.8F   7/11   5/360
BARBERS PT BUOY  NOT AVBL
WAIMEA BAY BUOY  2200      82                N/A     4/11   2/350
KAILUA BAY BUOY  2200      82                N/A     5/11   2/360
LANAI BUOY       2200      82                N/A     3/13   2/180
BARBERS PT 2     2200      82                N/A     4/12   2/190
PAUWELA MAUI     2200      80                N/A     5/11   3/350
HILO             2200      81                N/A     6/11   3/350
KANEOHE BAY BUOY NOT AVBL
HANALEI KAUAI    NOT AVBL
KAHULUI HARBOR   2200   80 81   60/ 12/ 17 1016.0F
HONOLULU HARBOR  2200   78     310/  2/  4 1016.8F
KILO NALU        NOT AVBL
HILO HARBOR      2200   87      80/  8/ 12 1015.7F
MOKUOLOE         2200   79     180/  7/ 11   N/A
NAWILIWILI       2200      82                N/A
WHOTS BUOY       NOT AVBL
BUOY 51028       NOT AVBL
$$

......................KEY........................................
  SKY/WX - SKY CONDITIONS/PRESENT WEATHER
  TMP    - TEMPERATURE IN FAHRENHEIT
  DWPT   - DEWPOINT IN FAHRENHEIT
  RH     - RELATIVE HUMIDITY IN PERCENT
  WIND   - DIRECTION AND SPEED /MPH FOR ISLANDS...KTS FOR BUOYS/
  PRES   - MEAN SEA LEVEL PRESSURE IN INCHES OF HG
  VSB    - VISIBILITY IN MILES
  HX     - HEAT INDEX
  WCI    - WIND CHILL INDEX
  VRB    - VARIABLE WIND DIRECTION
  N/A    - NOT AVAILABLE



USA.gov is the U.S. government's official web portal to all federal, state and local government web resources and services.